Vernon, TX

4:16 AM CST on December 16, 2019 (GMT -0600)
Vernon

Weather History for KF05 - November, 2019

Change the Weather History Date:

Friday, November 22, 2019

  Actual Average (KLTS) Record (KLTS)
Temperature  
Mean Temperature 40 °F -  
Max Temperature 44 °F 56 °F 81 °F (2012)
Min Temperature 37 °F 34 °F 21 °F (2007)
Degree Days  
Heating Degree Days 24    
Moisture  
Dew Point 37 °F    
Average Humidity 83    
Maximum Humidity 94    
Minimum Humidity 65    
Precipitation  
Precipitation 0.06 in - - ()
Sea Level Pressure  
Sea Level Pressure 30.15 in    
Wind  
Wind Speed 11 mph (North)    
Max Wind Speed 18 mph    
Max Gust Speed 25 mph    
Visibility 10 miles    
Events Thunderstorm    
Averages and records for this station are not official NWS values.
T = Trace of Precipitation, MM = Missing Value Source: NWS Daily Summary

Daily Weather History Graph

Daily Weather History Graph

Search for Another Location

Airport or City:

Astronomy

Nov. 22, 2019 Rise Set
Actual Time 7:16 AM CST 5:29 PM CST
Civil Twilight 6:49 AM CST 5:56 PM CST
Nautical Twilight 6:18 AM CST 6:27 PM CST
Astronomical Twilight 5:48 AM CST 6:57 PM CST
Moon 2:40 AM CST (11/22) 3:17 PM CST (11/22)
Length of Visible Light 11h 07m
Length of Day
10h 13m
Waning Crescent, 19% of the Moon is Illuminated
Nov 22
Waning Crescent
Nov 26
New
Dec 4
First Quarter
Dec 11
Full
Dec 18
Last Quarter

Hourly Weather History & Observations

Time (CST) Temp. Windchill Dew Point Humidity Pressure Visibility Wind Dir Wind Speed Gust Speed Precip Events Conditions
12:15 AM 43.0 °F 35.7 °F 41.4 °F 94% 30.12 in 10.0 mi North 15.0 mph - 0.01 in   Overcast
12:55 AM 42.6 °F 36.3 °F 40.6 °F 93% 30.13 in 10.0 mi North 11.5 mph 18.4 mph 0.01 in   Overcast
1:15 AM 42.6 °F 36.8 °F 40.3 °F 91% 30.17 in 10.0 mi NNW 10.4 mph - N/A Thunderstorm Overcast
1:35 AM 42.8 °F 34.5 °F 40.5 °F 91% 30.12 in 10.0 mi North 18.4 mph 25.3 mph N/A   Overcast
1:55 AM 42.8 °F 35.8 °F 40.1 °F 90% 30.12 in 10.0 mi NNE 13.8 mph 17.3 mph 0.01 in   Overcast
2:15 AM 42.3 °F 35.1 °F 39.6 °F 90% 30.14 in 10.0 mi North 13.8 mph - N/A   Overcast
2:35 AM 41.9 °F 33.7 °F 39.4 °F 91% 30.13 in 10.0 mi North 17.3 mph 23.0 mph 0.01 in   Overcast
2:55 AM 41.9 °F 35.0 °F 39.4 °F 91% 30.14 in 10.0 mi NNE 12.7 mph - 0.02 in   Overcast
3:15 AM 41.7 °F 36.1 °F 39.6 °F 92% 30.13 in 10.0 mi NNE 9.2 mph - N/A   Overcast
3:35 AM 41.5 °F 36.4 °F 39.7 °F 93% 30.15 in 10.0 mi North 8.1 mph - N/A   Overcast
3:55 AM 41.5 °F 34.6 °F 39.7 °F 93% 30.11 in 10.0 mi NNE 12.7 mph 16.1 mph N/A   Overcast
4:15 AM 41.0 °F 36.4 °F 39.2 °F 93% 30.14 in 10.0 mi NNE 6.9 mph - N/A   Overcast
4:35 AM 40.6 °F 34.8 °F 38.8 °F 93% 30.15 in 10.0 mi North 9.2 mph - N/A   Overcast
4:55 AM 40.5 °F 34.1 °F 38.5 °F 93% 30.10 in 7.0 mi NNE 10.4 mph - 0.02 in   Overcast
5:15 AM 40.5 °F 33.2 °F 38.7 °F 93% 30.14 in 10.0 mi NNW 12.7 mph - N/A   Overcast
5:55 AM 40.6 °F 32.7 °F 38.5 °F 92% 30.18 in 10.0 mi North 15.0 mph - N/A   Overcast
6:15 AM 40.5 °F 32.1 °F 38.1 °F 91% 30.18 in 10.0 mi North 16.1 mph 20.7 mph N/A   Overcast
6:35 AM 40.1 °F 32.0 °F 37.4 °F 90% 30.18 in 10.0 mi North 15.0 mph - N/A   Overcast
6:55 AM 40.1 °F 33.2 °F 37.2 °F 89% 30.18 in 10.0 mi North 11.5 mph 18.4 mph N/A   Overcast
7:15 AM 40.1 °F 33.6 °F 37.2 °F 89% 30.18 in 10.0 mi North 10.4 mph - N/A   Overcast
7:35 AM 39.7 °F 32.7 °F 37.0 °F 90% 30.17 in 10.0 mi North 11.5 mph - N/A   Overcast
7:55 AM 39.2 °F 33.6 °F 36.5 °F 90% 30.20 in 10.0 mi North 8.1 mph - N/A   Mostly Cloudy
8:15 AM 39.9 °F 34.5 °F 37.4 °F 91% 30.20 in 10.0 mi North 8.1 mph - N/A   Overcast
8:35 AM 40.5 °F 32.5 °F 37.4 °F 89% 30.20 in 10.0 mi North 15.0 mph - N/A   Overcast
8:55 AM 40.8 °F 34.5 °F 36.9 °F 86% 30.20 in 10.0 mi North 10.4 mph - N/A   Overcast
9:15 AM 40.6 °F 33.8 °F 37.2 °F 88% 30.21 in 10.0 mi North 11.5 mph - N/A   Overcast
9:35 AM 40.6 °F 34.3 °F 37.2 °F 88% 30.22 in 10.0 mi North 10.4 mph - N/A   Overcast
9:55 AM 40.8 °F 33.3 °F 36.5 °F 85% 30.23 in 10.0 mi NNW 13.8 mph - N/A   Overcast
10:15 AM 41.2 °F 33.4 °F 36.1 °F 82% 30.22 in 10.0 mi North 15.0 mph 18.4 mph N/A   Overcast
10:35 AM 41.9 °F 36.3 °F 36.1 °F 80% 30.21 in 10.0 mi NNW 9.2 mph - N/A   Overcast
10:55 AM 42.1 °F 36.1 °F 36.1 °F 79% 30.22 in 10.0 mi North 10.4 mph - N/A   Overcast
11:15 AM 42.3 °F 35.9 °F 36.0 °F 78% 30.21 in 10.0 mi North 11.5 mph - N/A   Overcast
11:35 AM 42.6 °F 35.6 °F 36.3 °F 78% 30.21 in 10.0 mi NNW 13.8 mph - N/A   Overcast
11:55 AM 42.8 °F 36.6 °F 36.1 °F 77% 30.20 in 10.0 mi NNW 11.5 mph - N/A   Overcast
12:15 PM 43.0 °F 36.8 °F 36.1 °F 77% 30.19 in 10.0 mi NW 11.5 mph - N/A   Overcast
12:35 PM 43.3 °F 36.8 °F 36.0 °F 75% 30.18 in 10.0 mi NNW 12.7 mph 18.4 mph N/A   Overcast
12:55 PM 43.2 °F 37.0 °F 36.1 °F 76% 30.17 in 10.0 mi North 11.5 mph - N/A   Overcast
1:15 PM 43.0 °F 36.0 °F 36.0 °F 76% 30.16 in 10.0 mi NNW 13.8 mph - N/A   Overcast
1:35 PM 43.2 °F 37.0 °F 35.4 °F 74% 30.16 in 10.0 mi NNW 11.5 mph 17.3 mph N/A   Overcast
1:55 PM 43.2 °F 37.4 °F 35.2 °F 74% 30.15 in 10.0 mi NNW 10.4 mph - N/A   Overcast
2:15 PM 43.7 °F 37.3 °F 34.7 °F 71% 30.14 in 10.0 mi NNW 12.7 mph - N/A   Overcast
2:35 PM 43.7 °F 39.1 °F 34.3 °F 70% 30.14 in 10.0 mi North 8.1 mph - N/A   Overcast
3:35 PM 44.1 °F 40.1 °F 34.2 °F 68% 30.13 in 10.0 mi NNW 6.9 mph - N/A   Overcast
3:55 PM 44.6 °F 40.7 °F 34.3 °F 67% 30.13 in 10.0 mi NNW 6.9 mph - N/A   Overcast
4:15 PM 44.6 °F 39.7 °F 34.0 °F 66% 30.13 in 10.0 mi NNW 9.2 mph - N/A   Overcast
4:35 PM 44.6 °F 39.2 °F 33.6 °F 65% 30.13 in 10.0 mi NNW 10.4 mph - N/A   Overcast
4:55 PM 44.6 °F 40.2 °F 34.0 °F 66% 30.12 in 10.0 mi North 8.1 mph - N/A   Overcast
5:15 PM 44.2 °F 38.8 °F 33.6 °F 66% 30.12 in 10.0 mi North 10.4 mph - N/A   Overcast
5:35 PM 44.1 °F 39.5 °F 33.3 °F 66% 30.12 in 10.0 mi NNW 8.1 mph - N/A   Overcast
6:15 PM 40.6 °F 37.5 °F 32.9 °F 74% 30.11 in 10.0 mi NNE 4.6 mph - N/A   Scattered Clouds
6:35 PM 40.1 °F - 33.8 °F 78% 30.12 in 10.0 mi Calm Calm - N/A   Mostly Cloudy
6:55 PM 41.2 °F 39.2 °F 35.2 °F 79% 30.13 in 10.0 mi NNE 3.5 mph - N/A   Overcast
7:55 PM 41.9 °F 39.0 °F 35.4 °F 78% 30.13 in 10.0 mi NE 4.6 mph - N/A   Overcast
8:15 PM 40.6 °F 38.6 °F 34.7 °F 79% 30.12 in 10.0 mi East 3.5 mph - N/A   Mostly Cloudy
8:35 PM 39.4 °F - 34.9 °F 84% 30.13 in 10.0 mi Calm Calm - N/A   Clear
9:15 PM 37.8 °F 34.2 °F 33.8 °F 86% 30.13 in 10.0 mi North 4.6 mph - N/A   Clear
9:35 PM 37.8 °F - 33.8 °F 86% 30.13 in 10.0 mi Calm Calm - N/A   Clear
9:55 PM 37.0 °F - 33.8 °F 88% 30.13 in 10.0 mi Calm Calm - N/A   Clear
10:15 PM 37.2 °F - 33.8 °F 87% 30.13 in 10.0 mi Calm Calm - N/A   Mostly Cloudy
10:35 PM 37.6 °F - 34.2 °F 87% 30.13 in 10.0 mi Calm Calm - N/A   Overcast
11:15 PM 38.8 °F - 35.2 °F 87% 30.12 in 10.0 mi Calm Calm - N/A   Overcast
11:35 PM 39.2 °F - 35.6 °F 87% 30.13 in 10.0 mi Calm Calm - N/A   Overcast
11:55 PM 39.2 °F - 35.6 °F 87% 30.13 in 10.0 mi Calm Calm - N/A   Overcast